TimeEST,TemperatureF,Dew PointF,Humidity,Sea Level PressureIn,VisibilityMPH,Wind Direction,Wind SpeedMPH,Gust SpeedMPH,PrecipitationIn,Events,Conditions,WindDirDegrees,DateUTC
12:04 AM,19.4,15.8,86,29.99,4.0,Calm,Calm,-,0.00,Snow,Light Snow,0,2013-02-04 05:04:00
12:36 AM,17.6,15.8,93,29.99,2.5,SSW,3.5,-,0.00,Snow,Light Snow,210,2013-02-04 05:36:00
12:53 AM,19.0,16.0,88,30.05,1.8,Calm,Calm,-,0.00,Snow,Light Snow,0,2013-02-04 05:53:00
1:19 AM,19.4,15.8,86,30.00,2.0,SSW,3.5,-,0.00,Snow,Light Snow,200,2013-02-04 06:19:00
1:32 AM,19.4,15.8,86,29.99,1.8,Calm,Calm,-,0.00,Snow,Light Snow,0,2013-02-04 06:32:00
1:53 AM,19.0,16.0,88,30.04,1.5,SSW,4.6,-,0.00,Snow,Light Snow,210,2013-02-04 06:53:00
2:19 AM,19.4,15.8,86,29.98,2.0,SSW,6.9,-,0.00,Snow,Light Snow,210,2013-02-04 07:19:00
2:35 AM,19.4,15.8,86,29.99,1.5,SSW,4.6,-,0.00,Snow,Light Snow,210,2013-02-04 07:35:00
2:48 AM,17.6,15.8,93,29.99,1.8,SSW,6.9,-,0.00,Snow,Light Snow,200,2013-02-04 07:48:00
2:53 AM,19.0,16.0,88,30.03,2.0,SSW,5.8,-,0.00,Snow,Light Snow,200,2013-02-04 07:53:00
3:02 AM,19.4,15.8,86,29.99,1.5,SSW,6.9,-,0.00,Snow,Light Snow,210,2013-02-04 08:02:00
3:20 AM,19.4,15.8,86,29.98,1.5,SSW,6.9,-,0.00,Snow,Light Snow,210,2013-02-04 08:20:00
3:53 AM,19.0,16.0,88,30.02,1.5,SW,4.6,-,0.00,Snow,Light Snow,220,2013-02-04 08:53:00
4:25 AM,19.4,15.8,86,29.96,1.5,SSW,5.8,-,0.00,Snow,Light Snow,200,2013-02-04 09:25:00
5:53 AM,19.0,16.0,88,29.98,1.8,South,4.6,-,0.00,Snow,Light Snow,170,2013-02-04 10:53:00
6:53 AM,19.0,17.1,92,29.98,1.2,South,5.8,-,0.01,Snow,Light Snow,180,2013-02-04 11:53:00
7:53 AM,19.0,17.1,92,29.98,1.2,South,6.9,-,0.00,Snow,Light Snow,180,2013-02-04 12:53:00
8:08 AM,19.4,17.6,93,29.93,0.5,South,4.6,-,0.01,Fog-Snow,Snow,170,2013-02-04 13:08:00
8:53 AM,19.9,17.1,89,29.98,1.0,South,3.5,-,0.01,Snow,Light Snow,170,2013-02-04 13:53:00
9:04 AM,19.4,17.6,93,29.94,0.8,South,4.6,-,0.00,Snow,Light Snow,170,2013-02-04 14:04:00
9:18 AM,19.4,17.6,93,29.94,0.8,South,4.6,-,0.00,Snow,Light Snow,180,2013-02-04 14:18:00
9:53 AM,19.9,18.0,92,29.97,0.5,South,3.5,-,0.00,Fog-Snow,Snow,170,2013-02-04 14:53:00
10:53 AM,21.0,18.0,88,29.96,1.2,ESE,3.5,-,0.01,Snow,Light Snow,120,2013-02-04 15:53:00
11:53 AM,21.9,18.0,85,29.94,2.0,ESE,4.6,-,0.00,Snow,Light Snow,120,2013-02-04 16:53:00
12:26 PM,23.0,17.6,80,29.88,4.0,East,5.8,-,0.00,,Haze,100,2013-02-04 17:26:00
12:37 PM,23.0,17.6,80,29.88,2.5,East,3.5,-,0.00,Snow,Light Snow,90,2013-02-04 17:37:00
12:53 PM,23.0,18.0,81,29.92,2.5,ENE,4.6,-,0.00,Snow,Light Snow,70,2013-02-04 17:53:00
1:00 PM,23.0,17.6,80,29.87,4.0,East,5.8,-,N/A,,Haze,100,2013-02-04 18:00:00
1:53 PM,24.1,19.0,81,29.91,2.5,East,3.5,-,N/A,,Haze,100,2013-02-04 18:53:00
2:53 PM,24.1,19.0,81,29.90,3.0,NE,3.5,-,N/A,,Haze,50,2013-02-04 19:53:00
3:53 PM,25.0,19.0,78,29.90,7.0,Variable,3.5,-,N/A,,Overcast,0,2013-02-04 20:53:00
4:13 PM,24.8,19.4,80,29.86,7.0,Calm,Calm,-,N/A,,Overcast,0,2013-02-04 21:13:00
4:53 PM,25.0,19.0,78,29.90,5.0,East,4.6,-,N/A,,Haze,80,2013-02-04 21:53:00
5:33 PM,24.8,17.6,74,29.85,3.0,NNE,5.8,-,0.00,Snow,Light Snow,30,2013-02-04 22:33:00
5:53 PM,24.1,18.0,77,29.89,5.0,NE,4.6,-,0.00,,Haze,40,2013-02-04 22:53:00
6:53 PM,23.0,18.0,81,29.92,4.0,North,4.6,-,0.00,Snow,Light Snow,10,2013-02-04 23:53:00
7:53 PM,21.9,17.1,82,29.94,5.0,North,6.9,-,0.00,,Haze,360,2013-02-05 00:53:00
8:53 PM,21.0,16.0,81,29.96,5.0,NNE,5.8,-,0.00,,Haze,20,2013-02-05 01:53:00
9:53 PM,19.0,15.1,85,29.96,6.0,NNE,3.5,-,N/A,,Overcast,30,2013-02-05 02:53:00
10:53 PM,15.1,12.0,88,29.98,6.0,North,5.8,-,N/A,,Overcast,350,2013-02-05 03:53:00
11:53 PM,17.1,14.0,88,29.97,6.0,Calm,Calm,-,N/A,,Clear,0,2013-02-05 04:53:00